Location: Newark
(36.1358°N, 115.1208°W)
Time: 11:23:52
(UTC+00:00)

S-56A Canister/Altair - Pass Details

Date: 20 February 2020
Orbit: 634 x 2498 km, 38.9° (Epoch: 06 April)

Event Time Altitude Azimuth Distance (km) Brightness Sun altitude
Rises 03:10:35 0° 286° (WNW) 5,412 13.2 -21.9°
Reaches altitude 10° 03:15:56 10° 270° (W) 4,033 12.3 -23.0°
Maximum altitude 03:22:01 18° 233° (SW) 2,977 11.1 -24.2°
Drops below altitude 10° 03:26:55 10° 194° (SSW) 3,115 10.7 -25.2°
Sets 03:30:21 0° 175° (S) 3,774 11.0 -25.9°
